Погода Большая Мурта

Погода Большая Мурта : погода сейчас, прогноз погоды и архив. Всё, что Вы хотите узнать о погоде Большая Мурта!

Хотите узнать прогноз погоды Большая Мурта? Тогда Вам сюда: Погода Большая Мурта

Поиск расширенной информации на нашем сайте:

Другие новости

Новости СМИ2

Главная страница сайта

Новости сайта

03.07.2017

Напоминаем, что на нашем специализированном сайте Метеоцентр.Азия вы можете получить высокодетализированные автоматические прогнозы погоды по пунктам России, СНГ и мира в авиационном формате (включающие направление и скорость ветра, видимость, явления погоды, количество и форму облачности, нижнюю и верхнюю границу облачности).

Рекомендуем: промокод связной сентябрь 2015

Погода Большая Мурта - сегодня

Время (UTC), дата Ветер
(°,м/с) 
Видим.   Явления Облачность Т
(°С)
Тd
(°С)
f(%) Тe
(°С)
Pmin
(гПа)
dP
(гПа)
Po
(мм)
O2
(г/м3)
Тmin Tmax R s Состояние
почвы
00 19.11.17 070 (В) 20000 м    10/10 600 м кучево-дожд. 
[Cb cap]
-4.4 -7.3 80 -4  1017.6  -2  746  306  -4.7    0.0  равномерный
сухой снег
100% 
03 19.11.17 150 (ЮВ) 20000 м    10/8 600 м кучево-дожд., средняя 
[Cb cap|As op]
-2 -8.4 62 -3  1015.7  -1.6  745  303           
06 19.11.17 210 (ЮЗ) 20000 м    10/8 600 м кучево-дожд., средняя 
[Cb cap|As trans]
+0.2 -6.6 60 -1  1015.5  -0.1  745  301           
09 19.11.17 240 (ЮЗ) 3{10}  10 км  слаб. ливневой снег  10/10 600 м кучево-дожд. 
[Cb cap]
+1.1 -2 80 1016.8  1.4  746  299           
12 19.11.17 250 (З) 20000 м  {ливн. осадки}  6/6 600 м кучево-дожд. 
[Cb cap]
-0.8 -3.7 81 -3  1018.8  1.8  747  302    +1.6  0.3     
15 19.11.17 230 (ЮЗ) 20000 м    10/10 600 м кучево-дожд. 
[Cb cap]
-1.1 -3.4 84 -4  1019.3  0.5  747  303           
18 19.11.17 260 (З) 4000 м  слаб. ливневой снег  10/10 600 м кучево-дожд. 
[Cb cap]
-2.1 -5.6 77 -4  1020.2  0.8  748  304           
21 19.11.17 260 (З) 4{10}  20000 м  {ливн. осадки}  8/8 600 м кучево-дожд. 
[Cb cap]
-5.3 -9.5 72 -9  1023  2.4  750  309           
00 20.11.17 260 (З) 2{10}  20000 м  {ливн. осадки}  3/3 1000 м 
[Cu med, cong]
-8.2 -11.3 78 -10  1025.3  751  313  -8.2    0.7  равномерный
сухой снег
100% 
03 20.11.17 250 (З) 10 км    9/4 2000 м средняя, верхняя 
[Ac As|Ci]
-7.1 -10 80 -9  1025.5  0.3  752  312  -8.5         
06 20.11.17 270 (З) 4{11}  4000 м  слаб. ливневой снег  9/9 600 м кучево-дожд. 
[Cb cap]
-6.6 -11.1 70 -10  1026.2  0.7  752  312           
09 20.11.17 270 (З) 10 км  {ливн. осадки}  9/3 600 м кучево-дожд., верхняя 
[Cb cap|Ci]
-7 -11.3 71 -10  1027.2  0.9  753  312           
12 20.11.17 260 (З) 10 км  {ливн. осадки}  10/5 600 м кучево-дожд., средняя 
[Cb cap|Ac und]
-7.9 -11 78 -11  1028.9  1.6  754  314    -6.3  0.0     
15 20.11.17 280 (З) 4000 м  слаб. ливневой снег  6/6 600 м кучево-дожд. 
[Cb cap]
-8.7 -10.6 86 -10  1030.1  1.2  755  315           
18 20.11.17 280 (З) 4000 м  слаб. ливневой снег  10/10 600 м кучево-дожд. 
[Cb cap]
-9.4 -11.2 87 -9  1030.8  0.6  755  316           
21 20.11.17 тихо ()   4000 м  слаб. ливневой снег  10/6 600 м кучево-дожд., верхняя 
[Cb cap|Cs]
-11.6 -11.6 100 -12  1031.2  0.2  755  319           
00 21.11.17 090 (В) 4000 м  слаб. ливневой снег  10/5 600 м кучево-дожд., средняя 
[Cb cap|As op]
-12 -12 100 -12  1031  -0.2  755  319  -12.2    0.3  равномерный
сухой снег
100% 
03 21.11.17 040 (СВ) 4000 м  слаб. ливневой снег  9/5 600 м кучево-дожд., средняя 
[Cb cap|Ac trans]
-10.7 -10.7 100 -11  1030.1  -0.7  755  318           
06 21.11.17 120 (ЮВ) 10 км  в посл. час ливневой снег  9/9 600 м кучево-дожд. 
[Cb cap]
-6.4 -6.4 100 -6  1029.2  -0.6  754  312           
09 21.11.17 090 (В) 20000 м  {ливн. осадки}  10/10 600 м кучево-дожд. 
[Cb cap]
-6 -6 100 -6  1028.6  -0.6  754  311           
12 21.11.17 230 (ЮЗ) 4000 м  слаб. ливневой снег  10/10 600 м кучево-дожд. 
[Cb cap]
-3.6 -3.6 100 -5  1028.4  754  308    -3.5  0.9     
15 21.11.17 270 (З) 10 км  {ливн. осадки}  10/10 600 м кучево-дожд. 
[Cb cap]
-4.9 -4.9 100 -4  1028.3  -0.2  754  310           
18 21.11.17 190 (Ю) 10 км  {ливн. осадки}  10/10 600 м кучево-дожд. 
[Cb cap]
-5.4 -5.4 100 -7  1027.7  -0.6  753  310           
21 21.11.17 190 (Ю) 4000 м  слаб. ливневой снег  10/10 600 м кучево-дожд. 
[Cb cap]
-4.5 -4.5 100 -6  1025.4  -2.1  752  308           
00 22.11.17 170 (Ю) 4000 м  слаб. ливневой снег  10/10 600 м кучево-дожд. 
[Cb cap]
-3.8 -3.8 100 -5  1022.3  -3  749  307  -7.1    12  равномерный
мокрый или
старый снег
100% 
Время (UTC), дата Ветер
(°,м/с) 
Видим.   Явления Облачность Т
(°С)
Тd
(°С)
f(%) Тe
(°С)
Pmin
(гПа)
dP
(гПа)
Po
(мм)
O2
(г/м3)
Тmin Tmax R s Состояние
почвы

Для получения пояснительной информации подведите курсор к названию столбца.

ПОГОДА Большая Мурта - архив

Всё, что Вы хотите узнать о погоде Большая Мурта - удобно и подробно!

Выберите нужную дату (начиная с 1 января 2015* года) и нажмите кнопку "Найти".
Будут отображены архивные сводки погоды по пункту Большая Мурта, начиная с указанной даты.


Отображать данные в формате CSV (для использования в таблицах Excel)


Внимание! Наш архив погоды предназначен исключительно для личного некоммерческого использования в познавательных целях. Если Вам необходимы официальные справки о состоянии погоды (для производственных, юридических, коммерческих и т.п. целей), обращайтесь в органы Росгидромета.

*Примечание: данная дата относится к архиву по метеостанциям СССР (Россия, СНГ, Балтия).
Архив по метеостанциям Зарубежной Европы и Азии (кроме Китая) хранится 10 дней, по другим регионам земного шара (Китай, Африка, Америка, Австралия, Океания) - 1 день.

Большая Мурта - район местоположения метеостанции


Название, широта, долгота, высота метеостанции:
Большая Мурта 56.9°ш. 93.1°д. 180 м над ур. моря [Российская Федерация]

Дополнительная информация

В oтличие oт бoльшинства пoгoдных сайтoв мы публикуем пoдрoбную метеoинфoрмацию в детальнoм прoфессиoнальнoм фoрмате.

Характеристики температуры и влажнoсти вoздуха измеряются на высoте 2 м в тени вдали oт зданий и деревьев.
Скoрoсть ветра измеряется на высoте 10 м (на урoвне рoста челoвека скoрoсть ветра ниже в 1.5-2 раза). Если метеoстанция нахoдится в гoрoде или в лесу, тo скoрoсть ветра занижена на 2-4 м/с пo сравнению с oткрытым местoм. Скoрoсть ветра над акватoриями крупных рек и oзёр, а также на вершинах хoлмoв на 2-5 м/с выше, чем в oбычных услoвиях.
Атмoсфернoе давление в разных тoчках местнoсти мoжет значительнo oтличаться oт давления на метеoстанции, в зависимoсти oт услoвий рельефа (при пoдъёме на 10 м давление пoнижается примернo на 1 мм рт.ст.).